OpenBCM V1.13 (Linux)

Packet Radio Mailbox

DB0FHN

[JN59NK Nuernberg]

 Login: GUEST





  
LU9DCE > KEP      17.04.19 20:34l 253 Lines 12440 Bytes #999 (0) @ WW
BID : 21662_LU9DCE
Read: DF7EAV DK3UZ GUEST
Subj: TLE 17 04
Path: DB0FHN<DB0BLO<DB0ERF<DB0RES<IR2UBX<IZ3LSV<IW0QNL<JH4XSY<N3HYM<GB7YEW<
      LU9DCE
Sent: 190417/1804Z 21662@LU9DCE.TOR.BA.ARG.SOAM LinBPQ6.0.18

            __    _  _  ___  ____   ___  ____    ____  ____  ____
           (  )  / )( \/ _ \(    \ / __)(  __)  (  _ \(  _ \/ ___)
           / (_/\) \/ (\__  )) D (( (__  ) _)    ) _ ( ) _ (\___ \
           \____/\____/(___/(____/ \___)(____)  (____/(____/(____/
               ESTACION DE PACKET RADIO - BUENOS AIRES (GF05OM)
                   BOLETINES INFORMATIVOS PROGRAMADOS (BIP)
                  SOPORTE TECNICO - HELLOCODELINUX@GMAIL.COM

+----------------------------------------------------------------------------+
OSCAR 7
1  7530U 74089B   19106.90044545 -.00000035 +00000-0 +61134-4 0  9999
2  7530 101.7377 075.2217 0012509 107.4480 309.7860 12.53637706032657
OSCAR 11 (UoSAT 2)
1 14781U 84021B   19106.95440962 +.00000055 +00000-0 +12937-4 0  9998
2 14781 097.6170 134.6198 0009098 156.6105 203.5524 14.83076819868465
OSCAR 19 (LUSAT)
1 20442U 90005G   19106.82461064 -.00000009 +00000-0 +12865-4 0  9990
2 20442 098.6436 048.9483 0011398 340.3991 019.6753 14.32922172527375
EYESAT A
1 22825U 93061C   19106.94961437 -.00000005 +00000-0 +15936-4 0  9992
2 22825 098.9001 094.1665 0008421 174.3739 185.7539 14.30055785332710
ITAMSAT
1 22826U 93061D   19106.96589619 +.00000003 +00000-0 +19189-4 0  9994
2 22826 098.8943 094.1825 0009159 163.9114 196.2360 14.30389145332936
RADIO ROSTO
1 23439U 94085A   19106.81193158 -.00000070 +00000-0 -77416-3 0  9997
2 23439 064.8168 217.8081 0147559 125.3792 236.1019 11.27567967000804
JAS 2
1 24278U 96046B   19106.92001983 +.00000007 +00000-0 +41394-4 0  9999
2 24278 098.5280 268.8735 0350996 042.9572 319.8415 13.53090349119062
TECHSAT 1B
1 25397U 98043D   19106.78829150 -.00000027 +00000-0 +73712-5 0  9992
2 25397 098.6840 047.7122 0000962 161.7395 198.3819 14.23663524078702
ISS (ZARYA)
1 25544U 98067A   19106.90787037 +.00001619 +00000-0 +33380-4 0  9996
2 25544 051.6433 305.8226 0001468 186.9609 017.5813 15.52559399165738
PCSAT
1 26931U 01043C   19106.57770161 -.00000013 +00000-0 +26679-4 0  9999
2 26931 067.0505 166.5453 0005892 278.1143 081.9289 14.30538403915874
SAUDISAT 1C
1 27607U 02058C   19106.85468328 -.00000010 +00000-0 +19519-4 0  9999
2 27607 064.5547 241.7091 0082389 268.4930 090.6734 14.75536090877765
CUTE-1
1 27844U 03031E   19106.96707211 +.00000059 +00000-0 +46114-4 0  9996
2 27844 098.6862 116.1129 0009268 206.3332 153.7375 14.22170411819339
CUBESAT XI 4
1 27848U 03031J   19106.94137084 +.00000045 +00000-0 +40540-4 0  9995
2 27848 098.6940 116.5735 0008947 218.4638 141.5903 14.21766577819192
MOZHAYETS 4
1 27939U 03042A   19106.87861417 +.00000101 +00000-0 +26658-4 0  9991
2 27939 098.0288 243.9577 0011396 265.3646 094.6256 14.66769804831337
CUBESAT XI 5
1 28895U 05043F   19106.81963112 +.00000130 +00000-0 +33827-4 0  9993
2 28895 097.9487 251.7413 0016768 185.5226 174.5794 14.63649245718050
CUTE-1.7+APD II
1 32785U 08021C   19106.75586242 +.00000221 +00000-0 +29474-4 0  9997
2 32785 097.5497 109.4410 0014600 109.5422 250.7374 14.88279464594257
DELFI C3
1 32789U 08021G   19106.93249889 +.00001037 +00000-0 +73656-4 0  9991
2 32789 097.4714 158.4744 0011520 348.3242 011.7717 15.06804028597415
SEEDS
1 32791U 08021J   19106.54433533  .00000270  00000-0  32749-4 0  9998
2 32791  97.5298 115.1423 0015074  88.8585 271.4361 14.90776231594709
YUBELEINY
1 32953U 08025A   19106.70605218 +.00000020 +00000-0 +75656-4 0  9998
2 32953 082.5060 183.9300 0017882 265.9783 093.9258 12.43088858494487
PRISM (HITOMI)
1 33493U 09002B   19106.74868543 +.00000020 +00000-0 +73290-5 0  9993
2 33493 098.1226 025.3184 0016180 035.2907 324.9381 14.96582808555733
KKS-1 (KISEKI)
1 33499U 09002H   19106.94374881 +.00000098 +00000-0 +22531-4 0  9994
2 33499 098.3543 303.6346 0010199 051.5659 308.6463 14.75423682549547
SWISSCUBE
1 35932U 09051B   19106.93471687 +.00000133 +00000-0 +41119-4 0  9996
2 35932 098.5810 271.0932 0007562 007.6976 352.4335 14.56263920507605
BEESAT
1 35933U 09051C   19106.94158798 +.00000109 +00000-0 +35511-4 0  9995
2 35933 098.5841 272.8274 0006089 023.1422 337.0048 14.56355718507674
ITUPSAT 1
1 35935U 09051E   19106.41319132 +.00000111 +00000-0 +36642-4 0  9999
2 35935 098.5952 272.5259 0008347 018.3258 341.8238 14.55518447507405
XIWANG-1 (HOPE-1)
1 36122U 09072B   19106.72786193 -.00000041 +00000-0 +40681-5 0  9992
2 36122 100.0734 112.0665 0007662 123.7369 236.4476 13.16349063448592
TISAT 1
1 36799U 10035E   19106.93769624 +.00000277 +00000-0 +34107-4 0  9991
2 36799 098.1465 257.0428 0010934 294.1785 065.8288 14.91054134475218
JUGNU
1 37839U 11058B   19106.79862676 +.00000326 +00000-0 +32231-4 0  9999
2 37839 019.9624 356.1666 0018857 353.9968 068.2804 14.12647478388357
SRMSAT
1 37841U 11058D   19106.97041074 +.00000303 +00000-0 +21339-4 0  9995
2 37841 019.9727 050.5989 0011799 226.9663 199.0416 14.10628929387737
M-CUBED/EXP-1 PRIME
1 37855U 11061F   19106.85488184 +.00000708 +00000-0 +43803-4 0  9997
2 37855 101.7237 330.1755 0173856 263.0711 095.0697 15.05269638407322
HORYU 2
1 38340U 12025D   19106.92387105 +.00000176 +00000-0 +33786-4 0  9995
2 38340 098.3362 143.6077 0010653 329.9787 030.0809 14.75692723361498
STRAND 1
1 39090U 13009E   19106.54786649  .00000029  00000-0  25193-4 0  9995
2 39090  98.4951 313.5431 0010237 113.5668 246.6594 14.35078213321334
SOMP
1 39134U 13015E   19106.72716251 +.00001341 +00000-0 +70971-4 0  9995
2 39134 064.8634 224.4032 0024995 314.8418 045.0678 15.19992637331029
BEESAT 3
1 39135U 13015F   19106.80168628 +.00000942 +00000-0 +56808-4 0  9993
2 39135 064.8664 241.5919 0012038 316.8259 043.1922 15.17326559330704
BEESAT 2
1 39136U 13015G   19106.81539503 +.00000996 +00000-0 +60375-4 0  9992
2 39136 064.8684 245.1759 0013077 309.9997 049.9980 15.16768380330243
CUBEBUG 1
1 39153U 13018D   19106.84309685 +.00000176 +00000-0 +29888-4 0  9997
2 39153 097.9744 205.3373 0017889 046.0815 314.1870 14.80540759322524
ZACUBE
1 39417U 13066B   19106.94263554 +.00000194 +00000-0 +30887-4 0  9999
2 39417 097.5665 123.9592 0057628 238.9229 120.6321 14.81084537291758
TRITON 1
1 39427U 13066M   19106.94419309 +.00000239 +00000-0 +46116-4 0  9993
2 39427 097.6712 088.2183 0114124 007.1942 353.0869 14.67810524288948
GOMX 1
1 39430U 13066Q   19106.88147188 +.00000293 +00000-0 +61477-4 0  9990
2 39430 097.7397 067.5973 0152730 092.1368 269.7337 14.59222051287440
HUMSAT D
1 39433U 13066T   19106.84713334 +.00000239 +00000-0 +28630-4 0  9995
2 39433 097.5609 156.8972 0031796 148.0635 212.2520 14.92134369293708
CUBEBUG 2
1 39440U 13066AA  19106.90071819 +.00000203 +00000-0 +35500-4 0  9990
2 39440 097.6022 109.0472 0078791 289.3515 069.9189 14.75824010289515
FUNCUBE 1
1 39444U 13066AE  19106.77514306 +.00000248 +00000-0 +36970-4 0  9993
2 39444 097.5650 125.6836 0056833 233.4722 126.1251 14.81896308290611
UWE-3
1 39446U 13066AG  19106.94472282 +.00000190 +00000-0 +32104-4 0  9991
2 39446 097.5831 116.0317 0068472 264.7008 094.6388 14.78358098289408
SPROUT
1 39770U 14029E   19106.79457802 +.00000855 +00000-0 +10092-3 0  9994
2 39770 097.8800 210.5246 0007898 298.6008 061.4436 14.87258687265480
UNISAT 6
1 40012U 14033C   19106.88144995 +.00000155 +00000-0 +30606-4 0  9993
2 40012 097.7670 336.1651 0057144 301.3733 058.1893 14.73950682259433
DUCHIFAT 1
1 40021U 14033M   19106.77912939 +.00000322 +00000-0 +38762-4 0  9999
2 40021 097.9231 031.1714 0011390 256.9886 103.0060 14.90576144262174
QB50P1
1 40025U 14033R   19106.73016644 +.00000279 +00000-0 +35688-4 0  9992
2 40025 097.9065 026.5158 0011003 266.9932 093.0026 14.88904061261446
CHUBUSAT 1
1 40300U 14070C   19106.81612177 +.00000705 +00000-0 +33783-4 0  9999
2 40300 097.3309 182.5805 0018502 278.5879 206.8621 15.21995966246450
NUDT-PHONESAT
1 40900U 15049B   19106.74552860 +.00002857 +00000-0 +12593-3 0  9991
2 40900 097.4407 116.7087 0014775 051.5463 003.1465 15.22525558198089
ZDPS 2A
1 40901U 15049C   19106.76994828 +.00001040 +00000-0 +54928-4 0  9990
2 40901 097.4612 113.5081 0015466 064.2533 347.9734 15.17611951197695
ZDPS 2B
1 40902U 15049D   19106.92033100 +.00001556 +00000-0 +81045-4 0  9998
2 40902 097.4553 111.2424 0015440 062.3089 359.0861 15.17390206197695
XW-2A
1 40903U 15049E   19106.81498623 +.00002482 +00000-0 +60867-4 0  9990
2 40903 097.3460 149.2081 0014291 021.5060 036.0328 15.41607580200565
KAITUO 1A
1 40904U 15049F   19106.80437574 +.00000856 +00000-0 +48823-4 0  9999
2 40904 097.4676 109.8958 0016519 068.6108 032.5956 15.15304661197479
OBJECT G
1 40905U 15049G   19106.89916646 +.00000421 +00000-0 +26552-4 0  9994
2 40905 097.4703 107.6209 0017542 062.8152 358.8471 15.14234968197374
XW-2C
1 40906U 15049H   19106.94194900 +.00000872 +00000-0 +49309-4 0  9997
2 40906 097.4682 110.0672 0016762 059.8810 358.3687 15.15589193197494
XW-2D
1 40907U 15049J   19106.92749225 +.00001182 +00000-0 +65259-4 0  9999
2 40907 097.4663 109.7308 0016060 058.3160 001.5892 15.15772611197504
LILACSAT 2
1 40908U 15049K   19106.92372458 +.00000836 +00000-0 +49848-4 0  9991
2 40908 097.4792 108.6756 0017738 063.5134 358.2385 15.13753096197317
XW-2F
1 40910U 15049M   19106.94734550 +.00001367 +00000-0 +72044-4 0  9995
2 40910 097.4636 111.6141 0016478 051.9378 005.7638 15.17159333197504
XW-2B
1 40911U 15049N   19106.95675699 +.00000715 +00000-0 +40947-4 0  9998
2 40911 097.4677 110.3918 0015939 057.6873 359.1649 15.15701559197400
KAITUO 1B
1 40912U 15049P   19106.74312321 +.00001677 +00000-0 +82091-4 0  9990
2 40912 097.4522 114.9187 0016409 038.3051 014.3258 15.19454314197757
TIANWANG 1C (TW-1C)
1 40926U 15051B   19106.84005869 +.00012658 +00000-0 +19442-3 0  9995
2 40926 097.1439 153.1311 0006738 235.5695 179.3861 15.54375622200399
